Regional Weather Roundup
Issued by NWS Burlington, VT

Current Version | Previous Version | Graphics & Text | Print | Product List | Glossary Off
Versions: 1 2 3 4 5 6 7 8 9 10 11 12 13 14 15 16 17 18 19 20 21 22 23 24 25 26 27 28 29 30 31 32 33 34 35 36 37 38 39 40 41 42 43 44 45 46 47 48 49 50

942
ASUS41 KBTV 221310
RWRBTV
VERMONT REGIONAL WEATHER ROUNDUP
NATIONAL WEATHER SERVICE BURLINGTON VT
900 AM EDT FRI MAY 22 2015

NOTE: "FAIR" INDICATES FEW OR NO CLOUDS BELOW 12,000 FEET WITH NO
SIGNIFICANT WEATHER AND/OR OBSTRUCTIONS TO VISIBILITY.

* THESE REPORTS ARE NOT UNDER NWS QUALITY CONTROL AND/OR DO NOT
  REPORT WEATHER SUCH AS PRECIPITATION AND FOG.

VTZ001>019-221400-
_____VERMONT_____


CITY           SKY/WX    TMP DP  RH WIND       PRES   REMARKS
BURLINGTON     PTSUNNY   56  38  50 W9        29.85R
MONTPELIER     CLOUDY    54  39  57 N8        29.85R
MORRISVILLE    CLOUDY    56  37  49 VRB3      29.84R
ST. JOHNSBURY*   N/A     57  44  62 MISG      29.79S
LYNDONVILLE*     N/A     56  35  46 W13       29.82R
MIDDLEBURY*    CLOUDY    58  40  50 W7        29.84R
RUTLAND*       MOSUNNY   57  37  47 SW8       29.83F
SPRINGFIELD    MOSUNNY   61  36  39 SW5       29.83R
HIGHGATE*      CLOUDY    49  42  75 N5        29.85R
NEWPORT*       CLOUDY    51  38  61 W10       29.81R
BENNINGTON     MOSUNNY   57  39  51 VRB7      29.86S

_____LAKE CHAMPLAIN_____


CITY           SKY/WX    TMP DP  RH WIND       PRES   REMARKS

$$

NYZ007-026>031-035-052-083-221400-
_____NORTHERN NEW YORK_____


CITY           SKY/WX    TMP DP  RH WIND       PRES   REMARKS
PLATTSBURGH    PTSUNNY   56  39  53 NW10G18   29.85R
SARANAC LAKE   CLOUDY    46  35  65 NW8       29.86R
MASSENA        PTSUNNY   49  35  58 NW8       29.94R
OGDENSBURG*    SUNNY     52  36  54 N8G16     29.95R
POTSDAM*       CLOUDY    45  34  65 N7        29.93R
WATERTOWN      MOSUNNY   53  33  46 N9        29.96R
FT DRUM        SUNNY     49  35  56 N9        29.94R
ALBANY         MOSUNNY   60  40  47 W13       29.88R
GLENS FALLS    SUNNY     58  40  51 SW5       29.85S

$$
NHZ002-005-011-221400-
_____NEW HAMPSHIRE_____


CITY           SKY/WX    TMP DP  RH WIND       PRES   REMARKS
LEBANON        MOSUNNY   59  38  45 S6        29.81R
KEENE          SUNNY     57  45  62 CALM      29.84S
MT WASHINGTON  MOSUNNY   34  30  86 W24         N/A
PLYMOUTH         N/A     61  41  48 NW6       29.79S
WHITEFIELD     PTSUNNY   59  37  44 W13       29.79S

$$

_____REGIONAL QUEBEC LOCATIONS_____


CITY           SKY/WX    TMP DP  RH WIND       PRES   REMARKS
MONTREAL       PTSUNNY   46  36  66 N10       29.89R
QUEBEC CITY    CLOUDY    41  37  87 N10       29.80R
SHERBROOKE     CLOUDY    50  41  71 W12       29.79R

_____REGIONAL ONTARIO LOCATIONS_____


CITY           SKY/WX    TMP DP  RH WIND       PRES   REMARKS
OTTAWA         PTSUNNY   48  34  57 NW12      29.95R

______KEY______
VSB  - VISIBILITY IN MILES
WCI  - WIND CHILL INDEX
HX   - HEAT INDEX
$$
NNNN



USA.gov is the U.S. government's official web portal to all federal, state and local government web resources and services.